Location: Brompton
(51.4000°N, 0.5333°E)
Time: 18:22:23
(UTC+00:00)

Cosmos 1536 - Pass Details

Date: 30 September 2021
Orbit: 539 x 557 km, 82.5° (Epoch: 28 October)

Event Time Altitude Azimuth Distance (km) Brightness Sun altitude
Rises 03:34:37 0° 348° (NNW) 2,713 6.5 -22.4°
Reaches altitude 10° 03:36:47 10° 347° (NNW) 1,815 5.6 -22.1°
Maximum altitude 03:40:46 77° 262° (W) 562 2.6 -21.5°
Enters shadow 03:40:48 76° 255° (WSW) 562 2.6 -21.5°
